Content
SEND FEEDBACK

Daily
Averages
Monthly
Summary
Russia

ALEKSEYEVKA, RUSSIA


Home > Europe > Russia
Elevation: 144 feet     Latitude: 53 15N     Longitude: 050 27E

WEATHER
 
SELECT A DAY
Number of Records: 199,740;   Date Range: 3/24/97 - 12/19/14
 
SHARE

PRINT THIS DATA

[ ← Previous Day ]
WEATHER ALMANAC - JANUARY 23, 2013
[ Next Day → ]
[ °C ]   °F
Weather ElementAverageHighLow
Temperature2.3 °F10.4 °F (2:00 pm)-11 °F (7:00 am)
Dewpoint-3 °F3.2 °F (2:00 pm)-15 °F (7:00 am)
Humidity77.5 %88 % (10:00 pm)58 % (4:00 pm)
Barometer29.77 in29.89 in (7:00 pm)29.68 in (12:30 am)
Wind Speed6.2 mph11.2 mph (1:00 am)
Weather ElementAverage
Visibility4.3 mi
Wind DirectionSW (221.4 °)

Weather ElementTotal
Precipitation---
Heating Degree Days65.3 (Base 65)
Averaged from 55 records on January 23, 2013
WEATHER CONDITIONS BREAKOUT
WIND DIRECTION BREAKOUT
WEATHER BY HOUR - JANUARY 23, 2013
[ °C ]   °F
Local TimeTemperatureDewpointHumidityBarometerVisibilityWind DirectionWind SpeedGust SpeedPrecipitationEventsConditions
12:30 AM5.0 °F-0.4 °F78 %29.68 in2.8 miWest (270°)8.9 mphMist
1:00 AM5.0 °F2.0 °F84 %29.75 in6.0 miNW (310°)4.5 mph
1:00 AM5.0 °F-0.4 °F78 %29.68 inWest (270°)11.2 mphMist
1:30 AM5.0 °F-0.4 °F78 %29.68 inWest (270°)8.9 mphMist
2:00 AM5.0 °F-0.4 °F78 %29.71 inWest (280°)8.9 mphMist
2:30 AM3.2 °F-0.4 °F85 %29.71 inWest (280°)6.7 mphMist
3:00 AM3.2 °F-2.2 °F78 %29.71 inWNW (290°)6.7 mphMist
3:30 AM3.2 °F-2.2 °F78 %29.71 inWest (280°)6.7 mphMist
4:00 AM-7.0 °F-9.0 °F86 %29.81 in6.0 miCalm
4:00 AM1.4 °F-2.2 °F85 %29.71 inWest (270°)6.7 mphMist
4:30 AM1.4 °F-2.2 °F85 %29.74 in2.8 miWest (280°)6.7 mphMist
5:00 AM1.4 °F-2.2 °F85 %29.74 in2.8 miWest (270°)6.7 mphMist
5:30 AM-2.2 °F-7.6 °F78 %29.71 in2.5 miWSW (240°)6.7 mphMist
6:00 AM-2.2 °F-5.8 °F85 %29.74 inWSW (250°)6.7 mphMist
6:30 AM-0.4 °F-5.8 °F78 %29.74 inWSW (240°)8.9 mphMist
7:00 AM-11.0 °F-15.0 °F74 %29.83 in6.0 miCalm
7:00 AM-2.2 °F-7.6 °F78 %29.74 inSW (220°)6.7 mphMist
7:30 AM-2.2 °F-7.6 °F78 %29.74 in2.5 miSSW (210°)8.9 mphMist
8:00 AM-4.0 °F-9.4 °F78 %29.74 inWSW (240°)6.7 mphMist
8:30 AM-4.0 °F-7.6 °F85 %29.74 inSW (220°)8.9 mphMist
9:00 AM-4.0 °F-9.4 °F78 %29.74 inSW (230°)6.7 mphMist
9:30 AM-0.4 °F-5.8 °F78 %29.77 inWSW (240°)6.7 mphMist
10:00 AM-9.0 °F-13.0 °F74 %29.87 in6.0 miCalm
10:00 AM-4.0 °F-9.4 °F78 %29.77 in2.5 miSW (230°)8.9 mphMist
10:30 AM-2.2 °F-7.6 °F78 %29.77 inWSW (240°)4.5 mphMist
11:00 AM-0.4 °F-5.8 °F78 %29.77 in2.5 miSW (220°)6.7 mphMist
11:30 AM1.4 °F-4.0 °F78 %29.77 in2.2 miNW (320°)4.5 mphMist
12:00 PM3.2 °F-2.2 °F78 %29.77 inSW (220°)6.7 mphClear
12:30 PM3.2 °F-0.4 °F85 %29.77 inSSW (210°)8.9 mphClear
1:00 PM7.0 °F1.0 °F64 %29.86 in6.0 miSSW (210°)6.7 mph
1:00 PM6.8 °F1.4 °F79 %29.77 inSW (220°)6.7 mphClear
1:30 PM6.8 °F1.4 °F79 %29.77 inCalmClear
2:00 PM10.4 °F3.2 °F73 %29.77 inSW (230°)6.7 mphClear
2:30 PM10.4 °F1.4 °F67 %29.77 inSW (220°)4.5 mphClear
3:00 PM10.4 °F3.2 °F73 %29.77 inSW (230°)6.7 mphClear
3:30 PM6.8 °F-0.4 °F72 %29.80 inSouth (180°)6.7 mphClear
4:00 PM9.0 °F1.0 °F58 %29.87 in6.0 miSW (220°)6.7 mph
4:00 PM8.6 °F1.4 °F73 %29.80 inSSW (200°)4.5 mphClear
4:30 PM5.0 °F-2.2 °F72 %29.80 inSSW (210°)4.5 mphClear
5:00 PM5.0 °F-2.2 °F72 %29.80 inSSW (200°)8.9 mphClear
5:30 PM5.0 °F-2.2 °F72 %29.80 inSSW (200°)8.9 mphClear
6:00 PM5.0 °F-2.2 °F72 %29.80 inSSW (200°)8.9 mphClear
6:30 PM3.2 °F-2.2 °F78 %29.80 inSSW (200°)6.7 mphClear
7:00 PM2.0 °F-1.0 °F80 %29.89 in6.0 miCalm
7:00 PM3.2 °F-2.2 °F78 %29.80 inSouth (190°)8.9 mphClear
7:30 PM5.0 °F-0.4 °F78 %29.80 inSSW (200°)8.9 mphClear
8:00 PM3.2 °F-2.2 °F78 %29.80 inSSW (200°)8.9 mphClear
8:30 PM3.2 °F-2.2 °F78 %29.80 inSSW (210°)4.5 mphClear
9:00 PM1.4 °F-4.0 °F78 %29.80 inSSW (200°)6.7 mphClear
9:30 PM3.2 °F-2.2 °F78 %29.80 inSouth (190°)6.7 mphClear
10:00 PM-3.0 °F-5.0 °F88 %29.89 in6.0 miCalmClear
10:00 PM5.0 °F-2.2 °F72 %29.80 inSouth (190°)6.7 mphClear
10:30 PM3.2 °F-2.2 °F78 %29.80 inSouth (180°)4.5 mphClear
11:00 PM3.2 °F-2.2 °F78 %29.80 inVariable2.2 mphClear
11:30 PM5.0 °F-0.4 °F78 %29.80 inSouth (190°)8.9 mphClear
Hourly data recorded from UWWW, located miles away from Alekseyevka, Russia







STORIES FROM OUR PARTNERS